Вернуться в каталог

ATLAS 5 CENTAUR DEB

LostHEO
NORAD 44013·DEBRIS·🇺🇸 United States

Запущен Sep 17, 2014 с Cape Canaveral Space Force Station

Loading…

Ближайшие Пролёты (ближайшие 24 часа)

TLE

УстаревшееSource: Space-Track

Эпоха: Oct 25, 2023, 02:31 UTC

1 44013U 14055BU  23298.10520161 -.00000147  00000-0  00000+0 0  9999
2 44013  20.6566 286.2341 4364217 267.3412  43.4632  1.67669481 30909

Отслеживайте ATLAS 5 CENTAUR DEB в реальном времени с AllMySat

Download on the App Store